TimeHST,TemperatureF,Dew PointF,Humidity,Sea Level PressureIn,VisibilityMPH,Wind Direction,Wind SpeedMPH,Gust SpeedMPH,PrecipitationIn,Events,Conditions,WindDirDegrees,DateUTC
12:54 AM,73.9,69.1,85,-9999,10.0,Calm,Calm,-,N/A,,Clear,0,2013-08-20 10:54:00
1:54 AM,71.1,68.0,90,-9999,10.0,ESE,4.6,-,N/A,,Clear,120,2013-08-20 11:54:00
2:54 AM,70.0,68.0,93,-9999,10.0,SSE,3.5,-,N/A,,Mostly Cloudy,150,2013-08-20 12:54:00
3:54 AM,71.1,68.0,90,-9999,10.0,Calm,Calm,-,N/A,,Partly Cloudy,0,2013-08-20 13:54:00
4:54 AM,69.1,66.9,93,-9999,10.0,SSE,4.6,-,N/A,,Clear,160,2013-08-20 14:54:00
5:54 AM,69.1,66.9,93,29.98,10.0,SSE,3.5,-,N/A,,Mostly Cloudy,150,2013-08-20 15:54:00
6:54 AM,70.0,68.0,93,29.99,10.0,SSE,4.6,-,N/A,,Scattered Clouds,160,2013-08-20 16:54:00
7:54 AM,77.0,72.0,84,30.01,10.0,Calm,Calm,-,N/A,,Partly Cloudy,0,2013-08-20 17:54:00
8:54 AM,81.0,69.1,67,30.01,10.0,West,4.6,-,N/A,,Smoke,270,2013-08-20 18:54:00
9:54 AM,82.9,69.1,63,30.01,10.0,North,5.8,-,N/A,,Smoke,360,2013-08-20 19:54:00
10:27 AM,86.0,69.8,58,29.99,10.0,Variable,3.5,-,N/A,,Partly Cloudy,0,2013-08-20 20:27:00
10:54 AM,88.0,69.1,53,30.01,10.0,North,8.1,-,N/A,,Scattered Clouds,350,2013-08-20 20:54:00
11:54 AM,90.0,69.1,50,29.99,10.0,NE,18.4,24.2,N/A,,Scattered Clouds,40,2013-08-20 21:54:00
12:54 PM,91.0,70.0,50,29.97,10.0,NNE,15.0,18.4,N/A,,Scattered Clouds,30,2013-08-20 22:54:00
1:54 PM,89.1,69.1,52,29.96,10.0,NNE,10.4,-,N/A,,Scattered Clouds,20,2013-08-20 23:54:00
2:54 PM,89.1,71.1,55,29.94,10.0,NNE,16.1,-,N/A,,Scattered Clouds,20,2013-08-21 00:54:00
3:54 PM,89.1,71.1,55,29.94,10.0,NNE,16.1,-,N/A,,Scattered Clouds,30,2013-08-21 01:54:00
4:54 PM,87.1,68.0,53,29.94,10.0,ENE,13.8,18.4,N/A,,Partly Cloudy,60,2013-08-21 02:54:00
5:54 PM,84.0,71.1,65,29.94,10.0,ENE,11.5,-,N/A,,Partly Cloudy,60,2013-08-21 03:54:00
6:54 PM,80.1,71.1,74,29.95,10.0,ENE,8.1,-,N/A,,Partly Cloudy,60,2013-08-21 04:54:00
7:54 PM,79.0,71.1,77,29.96,10.0,NE,4.6,-,N/A,,Partly Cloudy,40,2013-08-21 05:54:00
8:54 PM,77.0,71.1,82,29.98,10.0,East,5.8,-,N/A,,Partly Cloudy,90,2013-08-21 06:54:00
9:54 PM,75.0,71.1,87,30.00,10.0,ENE,3.5,-,N/A,,Partly Cloudy,60,2013-08-21 07:54:00
10:54 PM,73.9,70.0,87,30.00,10.0,East,5.8,-,N/A,,Clear,100,2013-08-21 08:54:00
11:54 PM,72.0,70.0,93,30.00,10.0,ESE,3.5,-,N/A,,Clear,120,2013-08-21 09:54:00